STARLINK-11179, 60190

Orbit data source: Space-Track

STARLINK-11179, 60190 is a payload satellite owned by SpaceX/Seattle (US) in LEO that was launched on Wed, 03 Jul 2024 UTC via an FALCON 9 launch vehicle from the Air Force Eastern Test Range (AFETR). Payload-class satellites include a variety of spacecraft equipped with specific instruments for various scientific and technological missions. These include communications satellites like Starlink; space stations such as the ISS; scientific satellites like the Hubble; Earth observation satellites from companies like Planet Labs, Umbra, and HawkEye 360; GPS; miniature CubeSats for education and research; and military/defense satellites.

Loading next visibility...
Identifier
60190, 2024-124H
Orbit
LEO
Last TLE update
18 hours ago
Origin
Manufacturer
SpaceX/Seattle
Mission
Operational Commercial Communications
Bus & Motor
STARLINK V2M, Unknown motor
Mass
730 kg wet, ~700 kg dry
Launch date (UTC)
2024-07-03 (10 months ago)
Launch vehicle
FALCON 9
Launch site
Air Force Eastern Test Range (AFETR)
Object type
Payload
Rocket body
Debris
Shape & HBR
Box + 2 Pan, 29 m
Radar Cross Section
36.964 m², Large (>1 m²)

Expand to show TLE details & history

TLE from 18 hours ago
0 STARLINK-11179
1 60190U 24124H   25128.54213915  .00003314  00000-0  32214-4 0  9994
2 60190  53.1596 225.7819 0001037  87.8148 272.2988 15.69701729 49578
Epoch: 2025-05-08T13:00Z
Definitive object data (Epoch: 2025-05-08T13:00:40.822Z)
Latitude
-0.00008°
Longitude
164.00061°
Altitude
360.637 km
Speed
7.694 km/s
True Right ascension
15h 03m 07s
True Declination
0° 00' 00"
Sunlit
Object was in full shadow at TLE epoch
Visualization TLE readout
Latitude
-52.10535°
Longitude
53.49359°
Altitude
378.479 km
Speed
7.682 km/s
Apparent Right ascension
05h 09m 44s
Apparent Declination
-51° 28' 49"
Sunlit
Object is in daylight
Visualization observer readout
Local Sidereal Time
15:04:13
Azimuth
231.396° WSW
Elevation
-65.483°
Doppler factor
1
Orbital elements
Apogee altitude
360.71 km
Perigee altitude
359.312 km
Semi-major axis
6,738.148 km
Eccentricity
0.0001037
Inclination
53.1596°
RAAN
225.7819°
Arg. of periapsis
87.8148°
True anomaly
272.28693°
Mean anomaly
272.2988°
Eccentric anomaly
272.29286°
Mean motion
3.92403 °/min
BSTAR
0.000032214
Orbital period
91.74 mins
Loading maneuver chart data...
Loading SW <> Apogee altitude chart data...
Loading historical data...
Loading historical data...
Loading historical data...
Loading historical data...
Loading historical data...
Loading historical data...
Loading historical data...

STARLINK-11179 Visibility forecast

Observer location: undefined°, undefined°

Span
Click to sort rows by Start time (UTC) header in descending order
Start Az.
Max El. time (UTC)
Max El. Az.
Max El.
End time (UTC)
End Az.
5 mins2025-05-09 09:03:18.799Z223.624° SW2025-05-09 09:06:18.799Z72.951° E40.489°2025-05-09 09:08:18.799Z53.555° ENE
5 mins2025-05-09 15:28:18.799Z324.531° NNW2025-05-09 15:30:18.799Z17.401° NNE34.686°2025-05-09 15:33:18.799Z110.876° ESE
|